Regional Weather Roundup
Issued by NWS

Home | Current Version | Previous Version | Graphics & Text | Print | Product List | Glossary On
Versions: 1 2 3 4 5 6 7 8 9 10 11 12 13 14 15 16 17 18 19 20 21 22 23 24 25 26 27 28 29 30 31 32 33 34 35 36 37 38 39 40 41 42 43 44 45 46 47 48 49 50
000
ASUS43 KMPX 062201
RWRMN
WEATHER ROUNDUP FOR MINNESOTA
NATIONAL WEATHER SERVICE TWIN CITIES/CHANHASSEN MN
500 PM CDT MON JUL 06 2015


NOTE: "FAIR" INDICATES FEW OR NO CLOUDS BELOW 12,000 FEET WITH NO
SIGNIFICANT WEATHER AND/OR OBSTRUCTIONS TO VISIBILITY. N/A MEANS
CURRENT SKY AND/OR WEATHER CONDITIONS ARE NOT AVAILABLE.

MNZ060>063-068>070-062300-
   Twin Cities Metro

CITY           SKY/WX    TMP DP  RH WIND       PRES   REMARKS
TWIN CITIES    PTSUNNY   70  58  65 N13       29.95R SMOKE
ST PAUL        CLOUDY    70  58  65 N12G25    29.94R HAZE
CRYSTAL        CLOUDY    74  58  57 N13       29.94R HAZE
BLAINE         CLOUDY    72  61  68 N12G17    29.95S HAZE
LAKEVILLE      MOSUNNY   70  57  64 N15G21    29.95R HAZE
EDEN PRAIRIE   CLOUDY    72  59  63 N14       29.94R HAZE
SOUTH ST PAUL  SUNNY     71  57  62 N13G22    29.94R HAZE
LAKE ELMO      PTSUNNY   68  59  73 N10G17    29.95S HAZE
$$
MNZ001>005-007-008-013>017-022>024-027-028-062300-
   Northwest Minnesota

CITY           SKY/WX    TMP DP  RH WIND       PRES   REMARKS
BEMIDJI        CLOUDY    60  44  57 NW15      30.06S
HALLOCK        CLOUDY    63  46  55 N14G21    30.11R
ROSEAU         CLOUDY    61  48  63 NW12G18   30.09R
WARROAD        CLOUDY    61  46  59 N10G17    30.08R
THIEF RVR FALL PTSUNNY   61  43  51 N15       30.10S
CROOKSTON      MOSUNNY   64  48  55 N15       30.11R
FOSSTON        CLOUDY    61  45  55 NW14G23   30.09S
DETROIT LAKES  MOSUNNY   63  45  51 N17G25    30.10S
MOORHEAD       MOSUNNY   64  48  55 N16       30.11R
PARK RAPIDS    CLOUDY    61  46  57 N12       30.07R
MAHNOMEN       CLOUDY    60  46  58 N20       30.09R
$$
MNZ006-009>011-018-025>026-062300-
   North Central Minnesota

CITY           SKY/WX    TMP DP  RH WIND       PRES   REMARKS
BAUDETTE       CLOUDY    61  44  53 N9        30.04R
FLAG ISLAND    CLOUDY    59  45  58 N15       30.05S
INTL FALLS     CLOUDY    61  44  53 N13       30.02S
WASKISH        CLOUDY    61  46  59 N6        30.05S
BIG FORK       PTSUNNY   61  46  59 NW5       30.02S
LONGVILLE      CLOUDY    61  46  59 N3        30.04R
GRAND RAPIDS   CLOUDY    63  43  48 NW22      30.01R
CRANE LAKE     CLOUDY    57  46  67 N9G20     30.01R
COOK           MOSUNNY   61  46  59 NW9G16    29.99S
WALKER         CLOUDY    58  46  65 NW7G16    30.05S
$$
MNZ012-019>021-037-062300-
   Northeast Minnesota

CITY           SKY/WX    TMP DP  RH WIND       PRES   REMARKS
DULUTH         MOSUNNY   67  53  61 NW13G18   29.93S
ELY            PTSUNNY   61  46  59 NW10G21   29.95S
HIBBING        PTSUNNY   64  46  52 NW13G24   29.98R
DULUTH HARBOR    N/A     66  61  82 CALM      29.93S HAZE
TWO HARBORS    PTSUNNY   70  57  64 NW6G17    29.91S
SILVER BAY     MOSUNNY   66  54  63 NW7       29.91S
GRAND MARAIS     N/A     54  53  97 SW6       29.89F
$$
MNZ029>031-032-039>041-046>048-054>057-064-062300-
   West Central Minnesota

CITY           SKY/WX    TMP DP  RH WIND       PRES   REMARKS
FERGUS FALLS   PTSUNNY   64  46  52 N13G28    30.08R
WHEATON        MOSUNNY   64  48  55 N14G20    30.10R
MORRIS         SUNNY     68  52  56 N22G31    30.06R
ALEXANDRIA     MOSUNNY   67  48  50 N16G30    30.06R
ELBOW LAKE     FAIR      65  47  51 N22G33    30.06S
WADENA         PTSUNNY   63  46  55 N16G25    30.06R
GLENWOOD       SUNNY     70  50  49 NW21G28   30.05R
APPLETON       MOSUNNY   72  48  43 N24G30    30.06R
BENSON         SUNNY     70  46  43 N18G29    30.05R
ORTONVILLE     MOSUNNY   70  50  49 N16G26    30.07R
MADISON        SUNNY     70  52  52 N21G26    30.06R
WILLMAR        FAIR      73  55  53 N14G22    30.02R
$$
MNZ033>034-036-042>043-049>051-058-059-062300-
   Central Minnesota

CITY           SKY/WX    TMP DP  RH WIND       PRES   REMARKS
ST CLOUD       MOSUNNY   73  51  46 NW15G23   29.96S HAZE
SAUK CENTRE    FAIR      68  49  49 NW21G26   30.02S
PAYNESVILLE    SUNNY     68  49  51 W15G28    30.00S
AITKIN         MOSUNNY   68  50  52 NW10G18   29.98R
PINE RIVER     CLOUDY    61  46  59 NW16G22   30.07R
BRAINERD       CLOUDY    66  47  50 N18G24    30.01R
STAPLES        CLOUDY    63  46  55 N17G23    30.05R
LONG PRAIRIE   FAIR      68  48  49 NW20G29   30.03R
LITTLE FALLS   SUNNY     70  46  43 N9        30.00R
LITCHFIELD     MOSUNNY   73  52  46 NW18G25   29.98S
BUFFALO        PTSUNNY   71  55  56 N10G17    29.97S HAZE
MAPLE LAKE     MOSUNNY   73  60  64 N9        29.97S HAZE
$$
MNZ037-044-045-052-053-062300-
   East Central Minnesota

CITY           SKY/WX    TMP DP  RH WIND       PRES   REMARKS
PRINCETON      MOSUNNY   73  57  56 NW12      29.96S
MORA           MOSUNNY   70  54  56 NW13      29.97R
CAMBRIDGE      SUNNY     73  55  53 NW14G20   29.93S
RUSH CITY      MOSUNNY   69  56  63 NW8       29.94S
MOOSE LAKE     PTSUNNY   68  54  60 CALM      29.93R
HINCKLEY       MOCLDY    72  57  60 N12G17    29.94S
CLOQUET        PTSUNNY   66  52  59 N13G23    29.94S
MCGREGOR       PTSUNNY   68  50  52 NW15G23   29.98R
$$
MNZ071>073-080-081-089-090-097-098-062300-
   Southwest Minnesota

CITY           SKY/WX    TMP DP  RH WIND       PRES   REMARKS
GRANITE FALLS  SUNNY     71  54  55 NW20G28   30.04R
CANBY          MOSUNNY   70  54  56 N17G25    30.07R
MARSHALL       MOSUNNY   70  54  56 N21       30.02S
REDWOOD FALLS  MOSUNNY   73  57  57 N10G24    29.99S HAZE
OLIVIA         SUNNY     72  54  53 N17G24    29.99S
PIPESTONE      MOSUNNY   72  55  56 N16       30.04S
WINDOM         SUNNY     72  57  60 N22       29.99S HAZE
WORTHINGTON    CLOUDY    72  55  56 N24       30.01S
JACKSON          N/A     72  61  68 N13G20    29.99S HAZE
TRACY          MOSUNNY   71  59  65 N20       30.02S
SLAYTON        SUNNY     70  56  61 N21G29    30.03F HAZE
$$
MNZ065>067-074>077-082>085-091>093-062300-
   South Central Minnesota

CITY           SKY/WX    TMP DP  RH WIND       PRES   REMARKS
MANKATO        CLOUDY    72  59  64 N21       29.96S
NEW ULM        SUNNY     72  55  56 N14G23    29.96S HAZE
ST JAMES       SUNNY     73  61  64 NW17G24   29.98S HAZE
FAIRMONT       CLOUDY    72  57  60 N13G21    29.96S
GLENCOE        MOSUNNY   73  61  64 NW10G20   29.96R HAZE
OWATONNA         N/A     70  59  68 N10       29.95R HAZE
WASECA           N/A     68  59  73 N16       29.96S HAZE
ALBERT LEA     SUNNY     70  59  68 N14G24    29.95R HAZE
$$
MNZ078>079-086>088-094>096-062300-
   Southeast Minnesota

CITY           SKY/WX    TMP DP  RH WIND       PRES   REMARKS
ROCHESTER      PTSUNNY   66  59  78 N24G35    29.93R HAZE
RED WING       MOSUNNY   70  57  64 N7G18     29.92S HAZE
DODGE CENTER   MOSUNNY   66  59  77 N15G25    29.94R HAZE
WINONA         CLOUDY    70  61  73 N10G23    29.88R HAZE
AUSTIN         MOSUNNY   70  57  64 N13G28    29.93R HAZE
PRESTON        CLOUDY    68  62  80 N20G25    29.90R
$$
ABBREVIATIONS USED IN REMARKS
   TC - TEMPERATURES IN CELSIUS
  WCI - WIND CHILL INDEX
   HX - HEAT INDEX
  VSB - VISIBILITY
$$


USA.gov is the U.S. government's official web portal to all federal, state and local government web resources and services.